Location: Newark
(48.6461°N, 4.3644°W)
Time: 00:57:04
(UTC+00:00)

S-56A Canister/Altair - Pass Details

Date: 22 January 2020
Orbit: 633 x 2499 km, 38.9° (Epoch: 20 February)

Event Time Altitude Azimuth Distance (km) Brightness Sun altitude
Rises 02:57:14 0° 256° (WSW) 2,944 - -48.6°
Reaches altitude 10° 03:02:04 10° 210° (SSW) 2,205 - -47.9°
Maximum altitude 03:02:28 10° 205° (SSW) 2,220 - -47.9°
Drops below altitude 10° 03:02:54 10° 200° (SSW) 2,249 - -47.8°
Sets 03:08:36 0° 157° (SSE) 3,579 - -47.0°
